Station MYPF1 - 8720218 - Mayport (Bar Pilots Dock), FL Image indicating link to RSS feed of recent meteorological observations for station MYPF1


Conditions at MYPF1 as of
(9:48 am EDT)
1348 GMT on 07/15/2024:
     

Click on the graph icon in the table below to see a time series plot of the last five days of that observation.

5-day plot - Wind Direction Wind Direction (WDIR): W ( 270 deg true )
5-day plot - Wind Speed Wind Speed (WSPD): 7.0 kts
5-day plot - Wind Gust Wind Gust (GST): 11.1 kts
5-day plot - Atmospheric Pressure Atmospheric Pressure (PRES):30.13 in
5-day plot - Air Temperature Air Temperature (ATMP): 84.6 °F
5-day plot - Water Temperature Water Temperature (WTMP): 86.5 °F
5-day plot - Wind Speed at 10 Meters Wind Speed at 10 meters (WSPD10M): 7.8 kts
5-day plot - Wind Speed at 20 Meters Wind Speed at 20 meters (WSPD20M): 7.8 kts
5-day plot -  Wind Speed, Wind Gust and Atmospheric Pressure Combined plot of Wind Speed, Gust, and Air Pressure
NOS Water Level Observation Network Water Level
Previous observations
TIME
(EDT)
5-day plot - Wind Direction
WDIR
 
5-day plot - Wind Speed
WSPD
kts
5-day plot - Wind Gust
GST
kts
5-day plot - Wave Height
WVHT
ft
5-day plot - Dominant Wave Period
DPD
sec
5-day plot - Average Wave Period
APD
sec
5-day plot - Mean Wave Direction
MWD
 
5-day plot - Atmospheric Pressure
PRES
in
5-day plot - Pressure Tendency
PTDY
in
5-day plot - Air Temperature
ATMP
°F
5-day plot - Water Temperature
WTMP
°F
5-day plot - Dew Point
DEWP
°F
5-day plot - Salinity
SAL
psu
5-day plot - Visibility
VIS
nmi
5-day plot - Tide (above MLLW)
TIDE
ft
2024-07-15 09:42 am W 8.0 11.1----30.13- 84.4 86.5----
2024-07-15 09:36 am W 8.0 11.1----30.13- 84.2 86.5----
2024-07-15 09:30 am W 8.0 11.1----30.14- 84.2 86.5----
2024-07-15 09:24 amWSW 8.9 11.1----30.14- 84.2 86.4----
2024-07-15 09:18 amWSW 8.0 9.9----30.14- 84.0 86.4----
2024-07-15 09:12 amWSW 7.0 8.9----30.14- 83.5 86.4----
2024-07-15 09:06 am SW 7.0 8.0----30.13- 83.5 86.2----
2024-07-15 09:00 am SW 7.0 8.9----30.13+0.04 82.9 86.2----
2024-07-15 08:54 amWSW 7.0 8.9----30.13- 82.8 86.2----
2024-07-15 08:48 amWSW 8.0 8.9----30.13- 82.4 86.2----
2024-07-15 08:42 am SW 8.0 8.9----30.12- 82.2 86.0----
2024-07-15 08:36 am SW 7.0 9.9----30.12- 82.0 86.0----
2024-07-15 08:30 am SW 7.0 9.9----30.12- 81.9 86.0----
2024-07-15 08:24 am SW 7.0 8.9----30.12- 81.9 86.0----
2024-07-15 08:18 am SW 7.0 8.9----30.12- 81.7 85.8----
2024-07-15 08:12 am SW 6.0 8.0----30.12- 81.5 85.6----
2024-07-15 08:06 amWSW 6.0 8.0----30.12- 81.3 85.6----
2024-07-15 08:00 amWSW 6.0 8.9----30.12+0.04 81.0 85.6----
2024-07-15 07:54 amWSW 6.0 8.0----30.12- 80.8 85.6----
2024-07-15 07:48 am SW 7.0 8.9----30.11- 80.8 85.6----
2024-07-15 07:42 am SW 5.1 8.0----30.11- 80.6 85.5----
2024-07-15 07:36 am SW 5.1 8.9----30.11- 80.4 85.5----
2024-07-15 07:30 am SW 6.0 8.9----30.11- 80.2 85.5----
2024-07-15 07:24 am SW 7.0 8.9----30.11- 80.2 85.5----
2024-07-15 07:18 am SW 6.0 8.9----30.11- 80.2 85.1----
2024-07-15 07:12 am SW 8.9 9.9----30.11- 80.1 84.9----
2024-07-15 07:06 am SW 6.0 8.0----30.10- 80.1 84.9----
2024-07-15 07:00 am SW 8.0 9.9----30.10+0.03 79.9 84.9----
2024-07-15 06:54 am SW 5.1 8.9----30.10- 79.7 85.1----
2024-07-15 06:48 amSSW 5.1 8.0----30.09- 79.3 84.7----
2024-07-15 06:42 amSSW 5.1 6.0----30.09- 79.3 84.6----
2024-07-15 06:36 amSSW 4.1 6.0----30.09- 79.5 84.2----
2024-07-15 06:30 amSSW 4.1 8.0----30.09- 79.9 84.4----
2024-07-15 06:24 am SW 5.1 8.0----30.09- 79.9 83.8----
2024-07-15 06:18 am SW 6.0 7.0----30.09- 79.9 84.0----
2024-07-15 06:12 am SW 5.1 8.0----30.09- 80.1 83.7----
2024-07-15 06:06 am SW 5.1 8.9----30.09- 79.9 84.7----
2024-07-15 06:00 am SW 6.0 8.9----30.09+0.01 80.1 84.9----
2024-07-15 05:54 amWSW 7.0 8.0----30.09- 80.1 84.4----
2024-07-15 05:48 am SW 6.0 8.0----30.09- 80.1 84.4----
2024-07-15 05:42 amWSW 5.1 7.0----30.09- 80.1 84.4----
2024-07-15 05:36 amWSW 5.1 7.0----30.08- 79.9 84.4----
2024-07-15 05:30 amWSW 5.1 7.0----30.08- 79.9 84.4----
2024-07-15 05:24 amWSW 6.0 8.0----30.08- 80.2 84.6----
2024-07-15 05:18 amWSW 7.0 8.9----30.08- 80.1 84.7----
2024-07-15 05:12 amWSW 7.0 8.0----30.08- 79.9 84.7----
2024-07-15 05:06 amWSW 5.1 7.0----30.07- 80.1 85.1----
2024-07-15 05:00 amWSW 6.0 8.9----30.07-0.03 79.9 85.5----
2024-07-15 04:54 amWSW 6.0 8.0----30.07- 79.7 85.5----
2024-07-15 04:48 amWSW 7.0 9.9----30.07- 80.1 85.3----
2024-07-15 04:42 am SW 7.0 8.9----30.07- 80.2 85.3----
2024-07-15 04:36 am SW 6.0 8.9----30.07- 80.1 85.3----
2024-07-15 04:30 am SW 7.0 9.9----30.07- 80.4 85.6----
2024-07-15 04:24 amWSW 6.0 8.0----30.07- 80.4 85.6----
2024-07-15 04:18 amWSW 7.0 8.0----30.07- 80.2 85.6----
2024-07-15 04:12 amWSW 6.0 7.0----30.07- 80.2 85.8----
2024-07-15 04:06 amWSW 6.0 7.0----30.07- 80.2 85.8----
2024-07-15 04:00 amWSW 6.0 8.0----30.07-0.05 80.2 85.8----
2024-07-15 03:54 amWSW 7.0 8.9----30.07- 79.9 85.8----
2024-07-15 03:48 amWSW 8.0 9.9----30.08- 80.2 86.0----
2024-07-15 03:42 amWSW 8.0 9.9----30.08- 80.2 86.4----
2024-07-15 03:36 amWSW 8.9 9.9----30.08- 80.4 86.4----
2024-07-15 03:30 amWSW 8.0 9.9----30.08- 80.6 86.5----
2024-07-15 03:24 amWSW 8.0 9.9----30.08- 80.8 86.5----
2024-07-15 03:18 amWSW 7.0 8.0----30.08- 80.4 86.5----
2024-07-15 03:12 amWSW 6.0 7.0----30.08- 80.6 86.5----
2024-07-15 03:06 amWSW 6.0 7.0----30.08- 80.4 86.7----
2024-07-15 03:00 amWSW 6.0 7.0----30.08-0.05 80.2 86.7----
2024-07-15 02:54 amWSW 5.1 7.0----30.08- 80.2 86.7----
2024-07-15 02:48 amWSW 5.1 7.0----30.08- 80.2 86.7----
2024-07-15 02:42 amWSW 6.0 7.0----30.08- 80.2 86.7----
2024-07-15 02:36 amWSW 6.0 8.0----30.09- 80.2 86.9----
2024-07-15 02:30 amWSW 7.0 8.9----30.09- 80.4 86.9----
2024-07-15 02:24 amWSW 7.0 8.0----30.09- 80.6 86.9----
2024-07-15 02:18 amWSW 7.0 8.0----30.10- 80.8 86.9----
2024-07-15 02:12 amWSW 7.0 8.9----30.10- 81.1 86.9----
2024-07-15 02:06 am SW 7.0 8.9----30.10- 80.8 86.9----
2024-07-15 02:00 am SW 6.0 9.9----30.11-0.01 81.0 86.9----
2024-07-15 01:54 am SW 7.0 9.9----30.11- 81.0 86.9----
2024-07-15 01:48 am SW 8.0 9.9----30.11-- 87.1----
2024-07-15 01:42 am SW 8.0 9.9----30.11-- 87.1----
2024-07-15 01:36 am SW 6.0 9.9----30.12-- 86.7----
2024-07-15 01:30 amSSW 6.0 8.9----30.11- 81.0 86.7----
2024-07-15 01:24 amSSW 6.0 9.9----30.11- 81.1 86.9----
2024-07-15 01:18 am SW 8.0 9.9----30.12- 81.1 86.9----
2024-07-15 01:12 am SW 6.0 9.9----30.12- 81.1 86.9----
2024-07-15 01:06 am SW 6.0 8.9----30.12- 81.0 86.9----
2024-07-15 01:00 amSSW 5.1 8.0----30.12+0.00 80.8 87.1----
2024-07-15 12:54 amSSW 5.1 8.0----30.12- 80.8 87.1----
2024-07-15 12:48 amSSW 5.1 7.0----30.12- 80.8 87.1----
2024-07-15 12:42 amSSW 6.0 8.9----30.12- 80.8 87.1----
2024-07-15 12:36 amSSW 6.0 8.9----30.12- 81.1 87.1----
2024-07-15 12:30 amSSW 5.1 8.0----30.13-- 87.1----
2024-07-15 12:24 amSSW 6.0 8.0----30.13-- 87.1----
2024-07-15 12:18 amSSW 5.1 8.9----30.12- 81.3 87.1----
2024-07-15 12:12 amSSW 6.0 8.9----30.12- 81.5 87.3----
2024-07-15 12:06 amSSW 5.1 8.0----30.12- 81.5 87.3----
2024-07-15 12:00 amSSW 5.1 8.0----30.12+0.00 81.3 87.3----
2024-07-14 11:54 pmSSW 7.0 8.9----30.12- 81.5 87.3----
2024-07-14 11:48 pmSSW 7.0 9.9----30.12- 81.5 87.3----
2024-07-14 11:42 pmSSW 6.0 8.9----30.12- 81.5 87.3----
2024-07-14 11:36 pm SW 7.0 11.1----30.12- 81.7 87.3----
2024-07-14 11:30 pmSSW 7.0 8.9----30.12- 81.7 87.3----
2024-07-14 11:24 pmSSW 6.0 8.0----30.12- 81.9 87.3----
2024-07-14 11:18 pmSSW 7.0 9.9----30.12- 81.9 87.3----
2024-07-14 11:12 pmSSW 6.0 8.0----30.12- 82.0 87.3----
2024-07-14 11:06 pmSSW 7.0 8.9----30.12- 82.2 87.3----
2024-07-14 11:00 pmSSW 6.0 8.0----30.12+0.01 82.4-----
2024-07-14 10:54 pmSSW 6.0 8.9----30.12- 82.4-----
2024-07-14 10:48 pm-------30.12- 82.6 87.3----
2024-07-14 10:42 pm-------30.12- 82.6 87.3----
2024-07-14 10:36 pm-------30.12- 82.8 87.3----
2024-07-14 10:30 pmSSW 6.0 8.0----30.12- 82.8 87.3----
2024-07-14 10:24 pmSSW 6.0 9.9----30.12- 82.9 87.1----
2024-07-14 10:18 pmSSW 5.1 8.9----30.12- 82.9 87.1----
2024-07-14 10:12 pmSSW 6.0 8.9----30.12- 82.9 87.1----
2024-07-14 10:06 pmSSW 6.0 9.9----30.12- 83.1 87.1----
2024-07-14 10:00 pmSSW 6.0 8.9----30.12+0.04 83.1 87.1----
2024-07-14 09:54 pm SW 7.0 8.9----30.12- 83.3 87.1----
2024-07-14 09:48 pmSSW 5.1 7.0----30.12- 83.1 87.1----
2024-07-14 09:42 pmSSW 4.1 8.0----30.12- 83.3 87.1----
2024-07-14 09:36 pmSSW 6.0 8.9----30.12- 83.3 86.9----
2024-07-14 09:30 pmSSW 6.0 9.9----30.12- 83.5 86.9----
2024-07-14 09:24 pmSSW 6.0 11.1----30.12- 83.7 86.9----
2024-07-14 09:18 pmSSW 7.0 8.9----30.12-- 86.9----
2024-07-14 09:12 pmSSW 4.1 8.0----30.12-- 86.9----
2024-07-14 09:06 pmSSW 5.1 8.0----30.12-- 86.9----
2024-07-14 09:00 pmSSW 6.0 8.9----30.12+0.04 83.7 86.9----
2024-07-14 08:54 pmSSW 5.1 8.0----30.12- 83.8 86.7----
2024-07-14 08:48 pm S 6.0 8.9----30.11-- 86.7----
2024-07-14 08:42 pmSSW 7.0 9.9----30.11-- 86.5----
2024-07-14 08:36 pm S 7.0 11.1----30.11-- 86.5----
2024-07-14 08:30 pmSSW 8.9 13.0----30.11- 84.4 86.5----
2024-07-14 08:24 pm S 8.9 12.0----30.11- 84.6 86.5----
2024-07-14 08:18 pm S 6.0 8.9----30.10-- 86.4----
2024-07-14 08:12 pmSSW 6.0 9.9----30.11-- 86.4----
2024-07-14 08:06 pmSSW 8.9 12.0----30.11-- 86.0----
2024-07-14 08:00 pm S 5.1 8.9----30.10+0.00- 85.8----
2024-07-14 07:54 pmSSW 7.0 8.9----30.10-- 85.6----
2024-07-14 07:48 pm S 6.0 9.9----30.09- 86.2 85.3----
2024-07-14 07:42 pm S 4.1 8.0----30.09- 86.5 84.7----
2024-07-14 07:36 pm S 7.0 9.9----30.09- 86.7 84.7----
2024-07-14 07:30 pm S 6.0 8.0----30.09-- 84.9----
2024-07-14 07:24 pm S 4.1 8.0----30.09-- 84.9----
2024-07-14 07:18 pmSSE 5.1 9.9----30.09- 87.3 84.9----
2024-07-14 07:12 pmSSE 2.9 8.0----30.08- 87.6 84.7----
2024-07-14 07:06 pmSSE 6.0 12.0----30.08- 87.4 84.9----
2024-07-14 07:00 pmSSE 6.0 12.0----30.08-0.02 87.4 84.9----
2024-07-14 06:54 pmSSE 5.1 9.9----30.08- 87.4 84.7----
2024-07-14 06:48 pmSSE 6.0 8.9----30.08- 87.4 84.6----
2024-07-14 06:42 pmSSE 5.1 9.9----30.08- 86.9 84.4----
2024-07-14 06:36 pmSSE 6.0 11.1----30.08- 86.5 84.4----
2024-07-14 06:30 pmSSE 8.9 14.0----30.08- 86.2 84.0----
2024-07-14 06:24 pmSSE 8.0 14.0----30.08- 86.2 84.0----
2024-07-14 06:18 pmSSE 7.0 12.0----30.08- 86.5 83.8----
2024-07-14 06:12 pm SE 7.0 12.0----30.08- 86.5 84.0----
2024-07-14 06:06 pm SE 7.0 12.0----30.08- 86.5 84.0----
2024-07-14 06:00 pmSSE 4.1 5.1----30.08-0.04- 84.0----
2024-07-14 05:54 pm S 4.1 7.0----30.09-- 83.8----
2024-07-14 05:48 pmSSW 5.1 8.0----30.09- 86.7 83.8----
2024-07-14 05:42 pmSSW 2.9 6.0----30.09- 86.5 83.7----
2024-07-14 05:36 pmSSW 4.1 7.0----30.09- 85.8 83.7----
2024-07-14 05:30 pm SW 5.1 7.0----30.09-- 83.8----
2024-07-14 05:24 pm SW 5.1 8.9----30.09-- 83.8----
2024-07-14 05:18 pm SW 8.9 12.0----30.10- 84.7 83.5----
2024-07-14 05:12 pm SW 8.9 9.9----30.10- 85.6 83.7----
2024-07-14 05:06 pm SW 8.0 9.9----30.10- 85.5 83.7----
2024-07-14 05:00 pmWSW 8.0 9.9----30.10-0.04 86.0 83.8----
2024-07-14 04:54 pm S 6.0 8.9----30.10- 88.3 83.8----
2024-07-14 04:48 pmSSE 5.1 8.9----30.10- 88.2 83.7----
2024-07-14 04:42 pm S 5.1 11.1----30.10- 88.3 83.5----
2024-07-14 04:36 pm S 5.1 13.0----30.11- 87.8 83.5----
2024-07-14 04:30 pmSSE 9.9 14.0----30.11- 87.1 83.7----
2024-07-14 04:24 pm SE 12.0 15.0----30.11- 87.1 83.5----
2024-07-14 04:18 pm SE 12.0 15.0----30.10-- 83.5----
2024-07-14 04:12 pm SE 8.9 13.0----30.10-- 83.5----
2024-07-14 04:06 pm SE 7.0 12.0----30.11-- 83.7----
2024-07-14 04:00 pm SE 8.0 12.0----30.11-- 83.7----
2024-07-14 03:54 pm SE 8.0 12.0----30.10-- 83.7----
2024-07-14 03:48 pm SE 7.0 13.0----30.11- 88.7 83.8----
2024-07-14 03:42 pm SE 8.0 13.0----30.11- 89.1 84.2----
2024-07-14 03:36 pmESE 7.0 13.0----30.11- 89.2 84.6----
2024-07-14 03:30 pm SE 8.9 13.0----30.12-- 84.4----
2024-07-14 03:24 pm SE 9.9 12.0----30.12-- 85.1----
2024-07-14 03:18 pmESE 9.9 13.0----30.12- 88.9 84.9----
2024-07-14 03:12 pm SE 8.9 12.0----30.12- 89.1 84.7----
2024-07-14 03:06 pmESE 8.0 11.1----30.12- 89.1 84.2----
2024-07-14 03:00 pmESE 8.0 11.1----30.13-0.05 89.2 85.3----
2024-07-14 02:54 pmESE 8.0 9.9----30.13- 89.4 84.7----
2024-07-14 02:48 pm SE 6.0 8.9----30.14- 89.2 84.9----
2024-07-14 02:42 pm SE 7.0 11.1----30.14- 88.7 85.3----
2024-07-14 02:36 pm SE 9.9 13.0----30.14- 88.3 85.6----
2024-07-14 02:30 pmESE 8.0 9.9----30.14-- 85.6----
2024-07-14 02:24 pm SE 5.1 11.1----30.14-- 86.7----
2024-07-14 02:18 pm SE 6.0 11.1----30.14-------
2024-07-14 02:12 pmESE 8.0 12.0----30.14-------
2024-07-14 02:06 pmESE 6.0 11.1----30.14-------
2024-07-14 02:00 pm SE 6.0 9.9----30.14-0.02 89.4 88.3----
2024-07-14 01:54 pmESE 6.0 9.9----30.15- 89.4 88.3----
2024-07-14 01:48 pmESE 6.0 9.9----30.14-- 88.3----
2024-07-14 01:42 pm E 7.0 9.9----30.15-- 88.2----
2024-07-14 01:36 pmESE 8.0 9.9----30.15-- 88.2----
2024-07-14 01:30 pmESE 7.0 11.1----30.15-- 88.0----
2024-07-14 01:24 pm SE 7.0 11.1----30.16-- 88.0----
2024-07-14 01:18 pmESE 8.9 11.1----30.16- 87.8 88.2----
2024-07-14 01:12 pmESE 8.0 9.9----30.16- 88.2 88.2----
2024-07-14 01:06 pmESE 8.0 11.1----30.16- 88.3 88.2----
2024-07-14 01:00 pm E 7.0 8.9------ 88.7 88.3----
2024-07-14 12:54 pmESE 6.0 12.0------ 88.7 88.3----
2024-07-14 12:48 pm E 7.0 9.9----30.16- 88.7 88.3----
2024-07-14 12:42 pm E 8.0 11.1----30.16- 88.5 88.2----
2024-07-14 12:36 pmESE 7.0 8.9----30.16- 88.9 88.5----
2024-07-14 12:30 pmESE 5.1 7.0----30.16- 89.2 88.3----
2024-07-14 12:24 pm SW 1.0 4.1----30.17- 90.0 88.2----
2024-07-14 12:18 pm-------30.17- 89.6 88.0----
2024-07-14 12:12 pm-------30.17- 90.0 87.8----
2024-07-14 12:06 pm-------30.17- 89.4 88.0----
2024-07-14 12:00 pm SW 2.9 7.0----30.17+0.01 89.4 87.8----
2024-07-14 11:54 am SW 4.1 8.0----30.17- 89.4 87.8----
2024-07-14 11:48 amWSW 5.1 8.0----30.17-- 87.6----
2024-07-14 11:42 amWSW 5.1 8.0----30.18-- 87.6----
2024-07-14 11:36 am W 2.9 7.0----30.17-- 87.6----
2024-07-14 11:30 amWSW 4.1 6.0----30.17- 88.9 87.6----
2024-07-14 11:24 am- 0.0 4.1----30.17- 89.2 87.6----
2024-07-14 11:18 am W 2.9 5.1----30.17- 88.5 87.4----
2024-07-14 11:12 amWSW 2.9 6.0----30.17- 88.3 87.6----
2024-07-14 11:06 amNNW 2.9 5.1----30.17- 88.3 87.6----
2024-07-14 11:00 am NW 4.1 8.0----30.17+0.00 88.0 87.8----
2024-07-14 10:54 am W 1.9 4.1----30.17- 87.6 87.8----
2024-07-14 10:48 am W 1.9 6.0------ 87.3 87.6----
2024-07-14 10:42 amWNW 2.9 6.0------ 87.1 87.4----
2024-07-14 10:36 amWSW 2.9 5.1------ 86.7 87.4----
2024-07-14 10:30 am NW 2.9 5.1----30.16- 86.9 87.6----
2024-07-14 10:24 am W 2.9 5.1----30.17- 86.7 87.6----
2024-07-14 10:18 am NW 1.9 6.0----30.17- 86.5 87.4----
2024-07-14 10:12 am W 2.9 6.0----30.17- 86.5 87.4----
2024-07-14 10:06 amWSW 4.1 5.1----30.17- 86.0 87.4----
2024-07-14 10:00 am-------30.17+0.01 85.8 87.4----
2024-07-14 09:54 am-------30.17- 85.6 87.4----